TECHNOSAT (42829 NORAD) Tracking and Keplerian Element Data

This shows tracking and keplerian element data for the satellite.

Feedback or suggestion? Click here.




ElementValue
Catalog42829
NameTECHNOSAT
Epoch Orbit7292
Epoch Day319.84755372
Epoch Year2018
RAAN216.3571
Inclination97.5822
Eccentricity0.0015613
Argument of Perigee58.2282
Mean Anonmoly302.0455
Mean Motion14.90887247
Decay Rate1.95E-06
L11 42829U 17042E 18319.84755372 .00000195 00000-0 25215-4 0 9996
L22 42829 97.5822 216.3571 0015613 58.2282 302.0455 14.90887247 72927

Live tracking and technical data element details for TECHNOSAT (NORAD 42829). TECHNOSAT can be tracked NOW for your location showing map with azimuth and elevation plus other details from your city location.

Track the satellite on the map from your city or location and see movement details for azimuth, elevation, latitude, longitude, range, height, and movement on the map or in text.







IsCatalogInMostPopularTable: catalog: 42829, numindb: 164
Update: records affected: 1



GetName: 42829 TECHNOSAT

Hit Count: updated at: Fri, 16 Nov 2018 09:13:18 GMT